Tucson, AZ

10:21 PM MST on August 23, 2017 (GMT -0700)
Tucson International

Weather History for KTUS - January, 2011

Change the Weather History Date:

Saturday, January 29, 2011

  Actual Average Record
Temperature  
Mean Temperature 55 °F 54 °F  
Max Temperature 70 °F 67 °F 82 °F (1986)
Min Temperature 39 °F 41 °F 19 °F (1932)
Degree Days  
Heating Degree Days 10 11  
Month to date heating degree days 384 360  
Since 1 July heating degree days 872 971  
Cooling Degree Days 0 0  
Month to date cooling degree days 0 0  
Year to date cooling degree days 0 0  
Growing Degree Days 4 (Base 50)    
Moisture  
Dew Point 12 °F    
Average Humidity 22    
Maximum Humidity 34    
Minimum Humidity 9    
Precipitation  
Precipitation 0.00 in 0.03 in 0.93 in (1936)
Month to date precipitation 0.00 0.87  
Year to date precipitation 0.00 0.87  
Snow  
Snow 0.00 in - - ()
Month to date snowfall 0.0  
Snow Depth 0.00 in    
Sea Level Pressure  
Sea Level Pressure 30.04 in    
Wind  
Wind Speed 7 mph (South)    
Max Wind Speed 15 mph    
Max Gust Speed 20 mph    
Visibility 10 miles    
Events      
T = Trace of Precipitation, MM = Missing Value Source: NWS Daily Summary

Daily Weather History Graph

Daily Weather History Graph

Search for Another Location

Airport or City:

Trip Planner

Search our weather history database for the weather conditions in past years. The results will help you decide how hot, cold, wet, or windy it might be!

Date:

Astronomy

Jan. 29, 2011 Rise Set
Actual Time 7:19 AM MST 5:54 PM MST
Civil Twilight 6:53 AM MST 6:20 PM MST
Nautical Twilight 6:24 AM MST 6:49 PM MST
Astronomical Twilight 5:55 AM MST 7:18 PM MST
Moon 3:52 AM MST (1/29) 2:02 PM MST (1/29)
Length of Visible Light 11h 26m
Length of Day
10h 35m
Waning Crescent, 18% of the Moon is Illuminated
Jan 29
Waning Crescent
Feb 2
New
Feb 11
First Quarter
Feb 18
Full
Feb 24
Last Quarter

Hourly Weather History & Observations

Time (MST) Temp. Windchill Dew Point Humidity Pressure Visibility Wind Dir Wind Speed Gust Speed Precip Events Conditions
12:53 AM 43.0 °F 39.5 °F 10.9 °F 27% 30.01 in 10.0 mi SSE 5.8 mph - N/A   Clear
1:53 AM 41.0 °F 35.8 °F 10.9 °F 29% 30.01 in 10.0 mi SSE 8.1 mph - N/A   Clear
2:53 AM 41.0 °F 37.1 °F 12.0 °F 31% 30.01 in 10.0 mi SSE 5.8 mph - N/A   Clear
3:53 AM 41.0 °F 36.4 °F 12.9 °F 32% 30.00 in 10.0 mi SE 6.9 mph - N/A   Clear
4:53 AM 39.0 °F 33.4 °F 12.9 °F 34% 30.01 in 10.0 mi SSE 8.1 mph - N/A   Clear
5:53 AM 41.0 °F 35.2 °F 16.0 °F 36% 30.01 in 10.0 mi SSE 9.2 mph - N/A   Clear
6:53 AM 41.0 °F 34.7 °F 14.0 °F 33% 30.04 in 10.0 mi SE 10.4 mph - N/A   Clear
7:53 AM 42.1 °F 35.7 °F 15.1 °F 34% 30.04 in 10.0 mi SE 11.5 mph - N/A   Clear
8:53 AM 48.9 °F - 16.0 °F 27% 30.06 in 10.0 mi SSE 12.7 mph - N/A   Clear
9:53 AM 55.9 °F - 14.0 °F 19% 30.07 in 10.0 mi SE 5.8 mph - N/A   Clear
10:53 AM 59.0 °F - 15.1 °F 18% 30.08 in 10.0 mi Calm Calm - N/A   Clear
11:53 AM 66.0 °F - 12.0 °F 12% 30.05 in 10.0 mi Calm Calm - N/A   Clear
12:53 PM 68.0 °F - 9.0 °F 10% 30.02 in 10.0 mi Variable 4.6 mph - N/A   Clear
1:53 PM 69.8 °F - 10.4 °F 10% 30.07 in 10.0 mi West 10.4 mph - N/A   Clear
2:53 PM 69.1 °F - 8.1 °F 9% 30.00 in 10.0 mi West 8.1 mph 17.3 mph N/A   Clear
3:53 PM 70.0 °F - 8.1 °F 9% 30.00 in 10.0 mi NW 8.1 mph - N/A   Clear
4:53 PM 68.0 °F - 9.0 °F 10% 30.00 in 10.0 mi WNW 10.4 mph 16.1 mph N/A   Clear
5:53 PM 66.0 °F - 9.0 °F 11% 30.01 in 10.0 mi NW 5.8 mph - N/A   Clear
6:53 PM 61.0 °F - 10.9 °F 14% 30.04 in 10.0 mi NW 3.5 mph - N/A   Clear
7:53 PM 55.9 °F - 10.9 °F 17% 30.05 in 10.0 mi South 3.5 mph - N/A   Clear
8:53 PM 52.0 °F - 10.9 °F 19% 30.06 in 10.0 mi SSE 6.9 mph - N/A   Clear
9:53 PM 48.0 °F - 10.0 °F 22% 30.07 in 10.0 mi SSE 6.9 mph - N/A   Clear
10:53 PM 46.9 °F - 12.0 °F 24% 30.08 in 10.0 mi South 5.8 mph - N/A   Clear
11:53 PM 46.0 °F 41.9 °F 12.0 °F 25% 30.06 in 10.0 mi SSE 8.1 mph - N/A   Clear